Awg-1 Sea, Netherlands

5:39 PM CEST on May 21, 2018 (GMT +0200)
Awg-1 Sea

Weather History for EHMA - January, 2014

Change the Weather History Date:

Friday, January 31, 2014

  Actual Average (WUND) Record (WUND)
Temperature  
Mean Temperature 32 °F -  
Max Temperature 39 °F - - (-1)
Min Temperature 26 °F - - (-1)
Degree Days  
Heating Degree Days 32    
Moisture  
Dew Point 27 °F    
Average Humidity 82    
Maximum Humidity 93    
Minimum Humidity 71    
Precipitation  
Precipitation 0.00 in - - ()
Sea Level Pressure  
Sea Level Pressure 29.69 in    
Wind  
Wind Speed 18 mph ()    
Max Wind Speed 30 mph    
Max Gust Speed -    
Visibility 3.1 miles    
Events      
Averages and records for this station are not official NWS values.
T = Trace of Precipitation, MM = Missing Value Source: Averaged Metar Reports

Daily Weather History Graph

Daily Weather History Graph

Search for Another Location

Airport or City:

Astronomy

Jan. 31, 2014 Rise Set
Actual Time 8:23 AM CET 5:16 PM CET
Civil Twilight 7:44 AM CET 5:55 PM CET
Nautical Twilight 7:02 AM CET 6:37 PM CET
Astronomical Twilight 6:21 AM CET 7:18 PM CET
Moon 8:09 AM CET (1/31) 6:38 PM CET (1/31)
Length of Visible Light 10h 10m
Length of Day
8h 53m
New Moon, 0% of the Moon is Illuminated
Jan 31
New Moon
Feb 6
First Quarter
Feb 15
Full
Feb 22
Last Quarter
Mar 1
New

Hourly Weather History & Observations

Time (CET) Temp. Windchill Dew Point Humidity Pressure Visibility Wind Dir Wind Speed Gust Speed Precip Events Conditions
12:00 AM 32 °F - 26 °F 72% 29.81 in 3 mi East 17.9 mph - -   Light Haze
12:25 AM 32.0 °F 20.8 °F 26.6 °F 80% 29.77 in - ESE 17.3 mph - N/A   Haze
12:55 AM 32.0 °F 20.1 °F 26.6 °F 80% 29.80 in 3.1 mi East 19.6 mph - N/A   Unknown
1:00 AM 31 °F - 26 °F 76% 29.82 in 3 mi East 15.7 mph - -   Light Haze
1:25 AM 32.0 °F 20.8 °F 26.6 °F 80% 29.80 in - East 17.3 mph - N/A   Haze
1:55 AM 30.2 °F 18.1 °F 24.8 °F 80% 29.80 in 3.1 mi East 18.4 mph - N/A   Unknown
2:00 AM 31 °F - 25 °F 71% 29.81 in 3 mi East 15.7 mph - -   Light Haze
2:25 AM 30.2 °F 18.5 °F 24.8 °F 80% 29.80 in 3.1 mi East 17.3 mph - N/A   Unknown
2:55 AM 30.2 °F 17.8 °F 24.8 °F 80% 29.80 in 3.1 mi East 19.6 mph - N/A   Unknown
3:00 AM 30 °F - 25 °F 75% 29.81 in 3 mi East 15.7 mph - -   Light Haze
3:25 AM 30.2 °F 18.5 °F 24.8 °F 80% 29.80 in 2.8 mi East 17.3 mph - N/A   Haze
3:55 AM 30.2 °F 18.1 °F 24.8 °F 80% 29.77 in - East 18.4 mph - N/A   Haze
4:00 AM 29 °F - 24 °F 75% 29.80 in 3 mi East 17.9 mph - -   Light Haze
4:25 AM 28.4 °F 15.8 °F 24.8 °F 86% 29.77 in - East 18.4 mph - N/A   Haze
4:55 AM 28.4 °F 16.6 °F 24.8 °F 86% 29.77 in 2.8 mi East 16.1 mph - N/A   Haze
5:00 AM 29 °F - 24 °F 74% 29.78 in 3 mi East 15.7 mph - -   Light Haze
5:25 AM 28.4 °F 14.7 °F 23.0 °F 80% 29.74 in - East 21.9 mph - N/A   Haze
5:55 AM 28.4 °F 14.7 °F 24.8 °F 86% 29.74 in - ESE 21.9 mph - N/A   Partly Cloudy
6:00 AM 28 °F - 23 °F 76% 29.77 in 3 mi East 20.1 mph - -   Mist
6:25 AM 26.6 °F 13.1 °F 23.0 °F 86% 29.74 in - ESE 19.6 mph - N/A   Partly Cloudy
6:55 AM 26.6 °F 13.4 °F 23.0 °F 86% 29.74 in - ESE 18.4 mph - N/A   Partly Cloudy
7:00 AM 27 °F - 23 °F 79% 29.77 in 2 mi ESE 15.7 mph - -   Mist
7:25 AM 26.6 °F 13.4 °F 23.0 °F 86% 29.77 in - ESE 18.4 mph - N/A   Partly Cloudy
7:55 AM 26.6 °F 13.1 °F 23.0 °F 86% 29.77 in - ESE 19.6 mph - N/A   Partly Cloudy
8:00 AM 26 °F - 23 °F 83% 29.78 in 2 mi ESE 15.7 mph - -   Mist
8:25 AM 26.6 °F 13.4 °F 23.0 °F 86% 29.77 in - ESE 18.4 mph - N/A   Partly Cloudy
8:55 AM 26.6 °F 13.4 °F 23.0 °F 86% 29.77 in - ESE 18.4 mph - N/A   Partly Cloudy
9:00 AM 26 °F - 23 °F 84% 29.78 in 2 mi ESE 15.7 mph - -   Mist
9:25 AM 26.6 °F 13.1 °F 23.0 °F 86% 29.77 in - ESE 19.6 mph - N/A   Partly Cloudy
9:55 AM 26.6 °F 13.1 °F 23.0 °F 86% 29.74 in - ESE 19.6 mph - N/A   Partly Cloudy
10:00 AM 27 °F - 24 °F 82% 29.77 in 2 mi ESE 15.7 mph - -   Mist
10:25 AM 26.6 °F 13.4 °F 24.8 °F 93% 29.74 in - ESE 18.4 mph - N/A   Partly Cloudy
10:55 AM 26.6 °F 12.7 °F 23.0 °F 86% 29.74 in - ESE 20.7 mph - N/A   Partly Cloudy
11:00 AM 28 °F - 24 °F 79% 29.75 in 2 mi ESE 17.9 mph - -   Mist
11:25 AM 28.4 °F 15.1 °F 24.8 °F 86% 29.74 in - ESE 20.7 mph - N/A   Mist
11:55 AM 28.4 °F 15.8 °F 24.8 °F 86% 29.74 in - ESE 18.4 mph - N/A   Mist
12:00 PM 29 °F - 25 °F 80% 29.75 in 3 mi ESE 15.7 mph - -   Mist
12:25 PM 28.4 °F 16.2 °F 24.8 °F 86% 29.71 in 2.8 mi SE 17.3 mph - N/A   Mist
12:55 PM 30.2 °F 18.5 °F 24.8 °F 80% 29.71 in 2.8 mi SE 17.3 mph - N/A   Mist
1:00 PM 30 °F - 25 °F 76% 29.72 in 3 mi SE 13.4 mph - -   Mist
1:25 PM 30.2 °F 18.5 °F 26.6 °F 86% 29.68 in - SE 17.3 mph - N/A   Mist
1:55 PM 32.0 °F 20.8 °F 26.6 °F 80% 29.68 in - SE 17.3 mph - N/A   Mist
2:00 PM 32 °F - 27 °F 74% 29.72 in 3 mi SE 13.4 mph - -   Mist
2:25 PM 33.8 °F 23.5 °F 28.4 °F 81% 29.68 in 3.1 mi SE 16.1 mph - N/A   Partly Cloudy
2:55 PM 33.8 °F 22.8 °F 28.4 °F 81% 29.68 in 3.1 mi SE 18.4 mph - N/A   Partly Cloudy
3:00 PM 34 °F - 29 °F 73% 29.69 in 3 mi SE 15.7 mph - -   Mist
3:25 PM 33.8 °F 22.8 °F 28.4 °F 81% 29.68 in 3.1 mi SE 18.4 mph - N/A   Unknown
3:55 PM 35.6 °F 25.2 °F 30.2 °F 81% 29.68 in 3.1 mi SE 18.4 mph - N/A   Unknown
4:00 PM 35 °F - 29 °F 73% 29.68 in 3 mi SE 15.7 mph - -   Mist
4:25 PM 35.6 °F 25.2 °F 30.2 °F 81% 29.65 in - SE 18.4 mph - N/A   Mist
4:55 PM 33.8 °F 22.2 °F 30.2 °F 87% 29.65 in - SE 20.7 mph - N/A   Mist
5:00 PM 34 °F - 30 °F 80% 29.67 in 3 mi SE 20.1 mph - -   Mist
5:25 PM 33.8 °F 21.0 °F 30.2 °F 87% 29.62 in - SE 25.3 mph - N/A   Mist
5:55 PM 33.8 °F 20.8 °F 30.2 °F 87% 29.62 in - SE 26.5 mph - N/A   Mist
6:00 PM 34 °F - 30 °F 80% 29.64 in 3 mi SE 22.4 mph - -   Mist
6:25 PM 33.8 °F 20.8 °F 30.2 °F 87% 29.62 in - SE 26.5 mph - N/A   Mist
6:55 PM 33.8 °F 20.8 °F 30.2 °F 87% 29.59 in - SE 26.5 mph - N/A   Mist
7:00 PM 35 °F - 31 °F 79% 29.62 in 3 mi SE 22.4 mph - -   Mist
7:25 PM 35.6 °F 23.2 °F 32.0 °F 87% 29.59 in - SE 26.5 mph - N/A   Mist
7:55 PM 35.6 °F 23.0 °F 32.0 °F 87% 29.56 in 2.5 mi SE 27.6 mph - N/A   Mist
8:00 PM 36 °F - 33 °F 82% 29.59 in 3 mi SE 24.6 mph - -   Mist
8:25 PM 35.6 °F 22.7 °F 33.8 °F 93% 29.56 in 2.8 mi SE 28.8 mph - N/A   Mist
8:55 PM 37.4 °F 25.4 °F 33.8 °F 87% 29.53 in 3.1 mi SE 27.6 mph - N/A   Unknown
9:00 PM 37 °F - 34 °F 84% 29.57 in 3 mi SE 22.4 mph - -   Mist
9:25 PM 37.4 °F 25.9 °F 33.8 °F 87% 29.53 in 3.1 mi SE 25.3 mph - N/A   Unknown
9:55 PM 37.4 °F 25.6 °F 33.8 °F 87% 29.53 in 3.7 mi SE 26.5 mph - N/A   Unknown
10:00 PM 37 °F - 34 °F 84% 29.54 in 4 mi SE 22.4 mph - -   Mist
10:25 PM 37.4 °F 25.9 °F 33.8 °F 87% 29.50 in 3.7 mi SE 25.3 mph - N/A   Unknown
10:55 PM 37.4 °F 25.6 °F 33.8 °F 87% 29.50 in 4.3 mi SE 26.5 mph - N/A   Unknown
11:00 PM 38 °F - 34 °F 79% 29.50 in 4 mi SE 22.4 mph - -   Mist
11:25 PM 39.2 °F 27.6 °F 33.8 °F 81% 29.47 in 5.0 mi SE 28.8 mph - N/A   Unknown
11:55 PM 39.2 °F 27.4 °F 33.8 °F 81% 29.44 in 5.6 mi SE 29.9 mph - N/A   Partly Cloudy